Weather in Shumunda

Russia / Zabaykalsky Krai     49°30′37″N   111°20′27″E
temp.,
°C
wind,
m/s
gust,
m/s
humid.,
%
clouds,
%
prec.,
mm/h
press.,
hPa
HPBL,
m
16 may, sun
sun1600:00+4nw22425 0.0 101528
03:00+3wnw22531 0.0 101725
06:00+1w226626 0.0 101732
09:00+9wnw49409 0.0 10131168
12:00+14wnw692995 0.0 10101821
15:00+18wnw682292 0.0 10072591
18:00+17wnw692274 0.0 10062766
21:00+12nw384012 0.0 1008221
17 may, mon
mon1700:00+7w226254 0.0 101035
03:00+4wnw2278100 0.0 101121
06:00+4w228058 0.0 100916
09:00+12sw38417 0.0 1004659
12:00+20wsw7142384 0.0 9983254
15:00+20nw9132796 0.0 9972911
18:00+14nw71144100 0.0 10001731
21:00+9nw496066 0.0 1003983
18 may, tue
tue1800:00+5nw3667100 0.0 1008327
03:00+3nnw1169100 0.0 101016
06:00+1w1174100 0.0 101118
09:00+6wnw244899 0.0 10111155
12:00+12nw4731100 0.0 10072071
15:00+14wnw5729100 0.0 10052557
18:00+13nw4634100 0.0 10042070
21:00+8wnw225441 0.0 100636
19 may, wed
wed1900:00+4wnw216738 0.0 100812
03:00+3wnw117315 0.0 100710
06:00+2w11815 0.0 100510
09:00+10ssw3856100 0.0 1000591
12:00+18sw61031100 0.0 9952999
15:00+16nw5941100 0.1 9952060
18:00+16nw464486 0.3 9961716
21:00+10nnw2266100 0.3 100016
20 may, thu
thu2000:00+5nw11880 0.0 100312
03:00+4wnw11915 0.0 100310
06:00+4wnw11921 0.0 100310
09:00+11ssw2665100 0.0 1001586
12:00+17ssw574384 0.0 9981256
15:00+22ssw582717 0.0 9942651
18:00+22s7112893 0.0 9912555
21:00+12sse2376100 2.1 99551